Regional Weather Roundup
Issued by NWS

Home | Current Version | Previous Version | Graphics & Text | Print | Product List | Glossary On
Versions: 1 2 3 4 5 6 7 8 9 10 11 12 13 14 15 16 17 18 19 20 21 22 23 24 25 26 27 28 29 30 31 32 33 34 35 36 37 38 39 40 41 42 43 44 45 46 47 48 49 50
000
ASUS43 KOAX 281102
RWRNE

WEATHER ROUNDUP FOR NEBRASKA
NATIONAL WEATHER SERVICE OMAHA NE
600 AM CDT THU AUG 28 2014

NOTES: SATELLITE DATA IS BEING USED TO AUGMENT CLOUD COVER ABOVE
       12000 FEET.
       "FAIR" INDICATES FEW OR NO CLOUDS BELOW 12,000 FEET WITH NO
       SIGNIFICANT WEATHER AND/OR OBSTRUCTIONS TO VISIBILITY.

  * THESE STATIONS DO NOT REPORT WEATHER SUCH AS RAIN...SNOW OR FOG.

NEZ001>004-019>022-054>056-281200-
NEBRASKA PANHANDLE

CITY           SKY/WX    TMP DP  RH WIND       PRES   REMARKS
SCOTTSBLUFF    PTCLDY    58  58 100 W6        30.03F
ALLIANCE       CLOUDY    62  60  93 NW7       29.99F
CHADRON        CLOUDY    63  62  97 N6        29.99F
KIMBALL        MOCLDY    56  50  81 W9        30.06S
SIDNEY         CLOUDY    60  56  86 NW13      30.03F
$$

NEZ057>060-069>072-079>082-281200-
SOUTHWEST NEBRASKA

CITY           SKY/WX    TMP DP  RH WIND       PRES   REMARKS
NORTH PLATTE   CLOUDY    63  60  90 NW7       29.94F
IMPERIAL       PTCLDY    60  58  92 NW6       29.95F
LEXINGTON      MOCLDY    67  66  96 E10       29.88F
MCCOOK         MOCLDY    62  61  96 W5        29.95R
OGALLALA       PTCLDY    60  59  97 CALM      29.97F
$$

NEZ005>010-023>029-035>040-094-281200-
NORTH CENTRAL NEBRASKA

CITY           SKY/WX    TMP DP  RH WIND       PRES   REMARKS
VALENTINE      CLOUDY    68  67  96 E3        29.91F
AINSWORTH      MOCLDY    66  66  99 CALM      29.91F
BROKEN BOW     CLOUDY    65  64  97 E3        29.92F
O`NEILL        CLOUDY    70  69  98 SE5       29.92F
ORD            CLOUDY    68  67  96 S6        29.91F
THEDFORD       CLOUDY    64  62  95 SW7       29.92F
$$

NEZ041-046>049-061>064-073>077-083>087-281200-
SOUTH CENTRAL NEBRASKA

CITY           SKY/WX    TMP DP  RH WIND       PRES   REMARKS
GRAND ISLAND   CLOUDY    68  66  93 SE7       29.93F
AURORA         MOCLDY    67  67 100 E5        29.93F
HASTINGS       MOCLDY    67  64  90 SE8       29.94F
HEBRON         MOCLDY    69  66  91 CALM      29.93S FOG
HOLDREGE       MOCLDY    66  64  95 CALM      29.93F
KEARNEY *      MOCLDY    66  64  94 SE3       29.94F
YORK           CLOUDY    68 N/A N/A E7        29.95F
$$

NEZ011>018-030>034-042>045-281200-
NORTHEAST NEBRASKA

CITY           SKY/WX    TMP DP  RH WIND       PRES   REMARKS
NORFOLK        LGT RAIN  69  67  93 SE10      29.94F
ALBION         CLOUDY    67  65  93 SE5       29.94F
BLAIR          CLOUDY    70  68  94 E15       29.94F
FREMONT        RAIN      70  69  96 E12       29.96F VSB 3/4
TEKAMAH        HVY RAIN  70  68  93 CALM      29.97F FOG
WAYNE          RAIN      68  67  96 SE9       29.97F
$$

NEZ050>053-065>068-078-088>093-281200-
SOUTHEAST NEBRASKA

CITY           SKY/WX    TMP DP  RH WIND       PRES   REMARKS
LINCOLN        CLOUDY    71  69  93 S3        29.95S
OMAHA EPPLEY   TSTM      71  68  90 E14       29.95F FOG
BEATRICE       CLOUDY    73  72  96 SE6       29.94R THUNDER
FALLS CITY     CLOUDY    73  72  96 E7        29.95S
NEBRASKA CITY  RAIN      70  70 100 E3        29.97F
PLATTSMOUTH    CLOUDY    70  68  93 CALM      29.95F
$$

NEZ044-045-051>053-067-281200-
OMAHA AREA

CITY           SKY/WX    TMP DP  RH WIND       PRES   REMARKS
OMAHA EPPLEY   TSTM      71  68  90 E14       29.95F FOG
BLAIR          CLOUDY    70  68  94 E15       29.94F
FREMONT        RAIN      70  69  96 E12       29.96F VSB 3/4
MILLARD        CLOUDY    71  69  94 E9        29.92F
OFFUTT AFB     LGT RAIN  70  70 100 E10       29.95F
PLATTSMOUTH    CLOUDY    70  68  93 CALM      29.95F
WAHOO          RAIN      69  67  91 N3        29.94R
$$



USA.gov is the U.S. government's official web portal to all federal, state and local government web resources and services.